Flight Information

DEPARTURE
SAN DIEGO, CA
Elevation:
427
Runways:
10L/28R - 4598x150 - ASPH-G
H1 - 48x48 - ASPH-G
5/23 - 3400x75 - ASPH-TRTD-E
10R/28L - 3401x60 - ASPH-G
ATIS:
126.9 858-277-3075
Clearance Delivery:
123.725
Ground:
118.22
Tower:
119.2 125.7
DESTINATION
,
Elevation:
TPA:
1000 (est.)


6752.3 NM74° True-13° Var61° HDG

Flight Plan:
(click to file on line)

1. Type
2. Aircraft Identification
3. Aircraft Type / Special Equipment
4. True Airspeed
kts
5. Departure Airport
(ICAO code)
6. Arriving Airport
(ICAO code)
7. Cruising Altitude
ft
8. Alternate Airport
(ICAO code)
9. Route of Flight
10. Remarks


00:00:00 Departure ATIS: Destination ATIS:

Clearance Limit:
Route:
Altitude: Expect in minutes
Frequency:
Transponder: (7500 Hijack / 7600 Lost Comms / 7700 Emergency)


KMYF 030753Z AUTO 00000KT 10SM OVC015 20/16 A2997 RMK AO2 SLP143 T02000161 402390189
Time: 2022-10-03T07:53:00Z
1664786072
Winds: calm
Visibility: 10.0 sm
Clouds (AGL): OVC 1500
Temperature: 20.0 C
Dew Point: 16.1 C
Pressure: 29.970472 in Hgbr


Notes:

Data extracted from FAA Digital Chart Supplement. Effective: 0901Z Thursday, 27 JAN 2022 to 0900z Thursday, 24 MAR 2022
Current ATIS data is provided courtisy of PilotEdge.